RH
27 28 31 34 37 40 40 40 42 40 35 31 30 31 31 32 33 34 35 35 34 34 33 33 34 35 35 34 33 34 36 38 36 34 34 35 34 35 34 33 34 38 41 44 47 45 45 45 45 44 43 41 41 45 50 50 45 44 46 43 35 28 27
27 28 30 32 34 36 37 36 37 37 35 33 31 29 29 30 31 33 35 36 36 36 36 36 37 37 36 34 33 34 36 37 35 34 36 38 39 38 36 35 37 40 42 43 45 46 46 47 47 46 45 43 43 46 50 53 53 53 56 55 47 38 34
26 28 29 31 34 36 37 35 34 34 35 34 33 30 29 29 30 31 33 34 34 35 36 36 37 37 36 36 34 34 37 37 34 35 38 41 42 41 41 42 43 44 45 43 45 47 49 52 52 51 49 50 51 51 53 56 57 58 59 59 56 51 45
25 26 29 31 33 35 37 36 35 34 34 34 33 32 30 30 30 31 31 32 32 32 33 33 34 34 36 35 35 36 38 36 35 36 39 41 43 43 44 47 47 47 48 46 46 50 54 56 56 54 53 55 54 53 54 58 60 62 60 59 59 58 52
24 26 28 30 32 34 36 37 37 35 34 34 34 33 32 30 30 31 32 34 33 31 30 31 32 32 34 35 36 38 38 37 37 38 38 40 43 44 46 48 49 49 51 48 48 55 60 59 59 59 58 57 56 57 59 62 65 65 61 57 58 60 57
25 27 28 29 32 34 35 37 38 37 35 35 34 34 33 32 32 34 35 36 35 32 29 29 29 30 33 36 39 40 38 38 39 38 38 40 43 45 46 48 49 50 50 48 48 56 61 62 64 63 59 58 59 61 62 66 69 68 65 63 62 62 61
26 28 28 29 31 33 35 36 38 39 39 37 35 34 33 34 35 36 37 37 36 33 30 29 30 33 36 39 40 40 39 40 40 39 40 41 44 46 47 47 47 47 48 48 49 53 57 61 64 60 54 56 62 65 66 67 69 70 70 69 68 67 64
27 29 30 30 30 32 34 37 38 40 41 39 37 36 34 35 37 37 37 36 35 33 32 32 33 35 38 39 40 40 41 42 42 42 42 42 43 45 47 49 48 46 47 49 50 53 55 57 59 55 50 54 61 65 65 65 66 69 70 69 71 70 65
28 30 30 30 31 31 33 37 38 39 40 39 37 37 35 35 38 38 36 35 33 33 34 34 35 37 38 39 40 41 43 44 45 46 44 43 44 44 47 50 49 47 48 50 52 54 54 54 55 51 49 53 57 59 60 61 63 68 69 70 72 70 64
27 29 30 31 31 30 31 35 38 38 38 37 37 38 36 35 37 37 35 34 33 32 33 35 36 38 38 40 41 43 45 47 49 49 47 46 45 44 45 46 46 47 50 52 54 56 53 51 51 49 49 53 57 57 56 58 61 65 69 72 73 69 63
26 28 31 31 31 31 30 34 37 37 35 35 36 36 36 34 34 34 33 33 33 32 34 36 39 40 41 41 43 45 46 48 49 50 50 50 47 47 47 44 44 47 50 53 55 54 50 47 48 48 50 54 56 54 51 52 56 61 67 72 74 71 64
27 28 30 32 32 32 31 34 37 36 34 34 34 34 34 31 30 30 30 30 31 34 36 39 40 43 44 43 43 45 46 47 48 49 51 51 50 52 52 48 45 46 48 52 54 51 47 46 46 47 51 56 59 58 52 50 53 58 64 71 76 74 67
27 28 29 30 32 33 33 34 36 35 33 32 32 33 32 30 28 28 27 27 29 33 38 41 42 44 45 44 45 46 45 46 48 49 51 52 53 54 55 53 49 46 46 50 51 50 48 47 46 47 50 55 61 62 57 53 54 57 62 71 77 75 69
25 27 28 28 30 32 33 34 35 34 33 31 31 32 31 29 28 27 27 27 28 33 39 43 45 45 45 46 47 47 46 46 48 49 51 52 52 53 55 56 54 50 51 55 55 53 53 52 47 46 48 51 56 56 55 56 59 60 64 73 78 75 71
24 26 28 27 26 28 31 34 33 33 33 32 31 31 30 29 27 27 27 27 29 34 40 44 45 45 45 45 46 46 46 46 47 48 51 53 51 51 56 60 62 61 58 57 58 59 58 55 49 47 52 54 53 49 49 54 59 62 66 71 74 74 72
24 24 26 26 24 23 28 34 33 32 32 31 29 28 27 27 26 26 26 28 31 35 39 42 42 42 43 43 44 45 46 46 47 49 52 55 53 53 57 61 66 69 64 56 55 57 57 56 55 56 59 59 53 47 47 52 58 64 69 72 72 73 70
24 23 24 25 24 22 28 34 35 32 30 28 25 25 26 26 26 26 27 29 32 36 37 38 39 39 40 41 42 43 44 45 47 49 53 56 55 54 55 57 59 63 63 57 53 53 56 60 64 62 59 57 51 47 50 56 64 72 76 75 74 72 65
24 24 25 25 25 23 27 32 32 29 27 26 25 25 25 25 25 27 28 29 31 34 35 35 36 37 38 39 40 41 44 47 48 51 55 56 54 54 55 56 56 57 56 55 53 53 55 62 66 61 57 55 51 50 54 60 70 79 79 76 76 71 62
25 27 27 26 25 24 25 29 30 28 27 26 26 26 26 26 26 27 28 29 30 32 33 34 36 38 39 41 43 43 46 48 48 52 55 53 50 50 50 50 52 53 51 49 49 47 46 54 61 58 53 51 51 56 61 66 75 81 78 76 77 70 61
27 28 28 28 27 26 27 31 33 31 28 27 27 28 28 28 28 29 29 31 31 32 34 36 38 41 42 44 45 45 45 46 46 50 53 51 48 47 46 47 49 51 50 49 50 47 43 49 58 59 54 53 55 61 66 71 78 80 75 75 74 67 62
29 29 29 31 31 30 30 32 33 31 28 28 29 29 29 29 29 30 31 32 33 35 36 37 39 42 43 43 43 42 42 43 45 51 54 52 51 50 48 48 50 52 53 53 52 49 47 51 58 59 58 56 59 63 67 72 78 76 72 72 69 65 65
28 29 30 30 31 32 31 31 32 31 29 30 31 30 30 30 30 31 32 34 35 36 35 37 39 40 40 41 40 41 42 43 47 54 57 55 54 53 50 48 50 52 53 53 52 50 51 56 60 61 60 58 61 67 70 74 76 71 68 67 65 65 65
26 28 28 28 29 30 29 29 31 32 31 32 33 33 32 32 32 32 33 35 36 37 36 37 38 39 40 40 40 42 44 46 50 56 58 57 55 54 52 50 50 52 52 52 52 51 55 61 63 62 60 60 66 72 74 76 75 70 67 66 63 64 64
25 26 28 28 28 28 28 28 30 32 33 34 34 33 32 32 31 32 33 35 37 38 38 37 38 39 40 41 43 45 47 50 56 59 60 59 57 55 54 52 51 51 51 51 51 53 57 61 61 60 60 64 71 75 76 78 76 71 67 64 59 59 61
26 27 28 27 27 28 28 29 30 32 34 34 34 33 31 30 30 32 34 36 38 39 38 37 38 40 41 43 45 48 49 53 59 61 60 60 58 56 54 52 51 51 50 50 51 53 56 58 58 59 63 69 73 74 76 78 74 70 69 63 56 56 59
27 29 29 29 29 28 28 29 31 32 34 34 33 32 30 30 32 34 36 38 39 39 38 37 39 41 43 44 46 48 51 54 58 61 61 61 59 56 53 51 51 52 51 50 50 52 55 57 59 61 64 69 72 73 74 73 70 70 71 65 58 58 61
31 31 32 32 30 28 28 30 32 33 33 33 32 31 31 32 33 36 38 39 39 39 38 39 40 42 43 45 46 47 50 54 58 61 62 61 59 56 52 50 52 53 52 51 51 53 56 59 61 63 65 69 72 72 71 70 68 69 69 65 62 62 63
33 34 33 31 30 30 30 31 32 33 32 32 32 32 33 34 36 38 39 40 40 40 41 42 42 43 44 46 47 48 51 57 60 61 61 60 59 55 50 49 52 54 54 53 52 55 58 61 63 65 67 71 72 68 67 67 66 67 68 66 65 65 66
35 34 32 30 31 33 33 32 32 32 32 32 33 34 35 37 39 40 40 41 42 43 44 45 45 45 46 48 49 50 54 60 61 59 58 59 57 53 50 50 54 56 56 55 54 57 61 62 63 64 67 70 69 66 66 67 67 67 67 67 67 70 73
36 35 34 34 33 34 33 33 33 34 35 35 36 37 39 40 42 42 42 43 43 44 45 46 46 46 47 49 52 53 57 61 61 59 58 57 55 52 51 53 55 57 57 56 56 59 63 63 63 64 67 69 70 70 71 70 67 66 68 69 71 74 77
34 34 35 35 34 34 35 36 37 37 38 39 39 39 42 44 45 45 45 45 46 47 47 47 47 48 49 52 55 57 61 64 62 59 58 56 53 52 53 55 55 56 56 57 59 62 64 66 66 67 69 70 71 72 71 69 67 67 70 75 78 80 83
38 38 37 36 36 37 37 37 38 39 40 42 43 43 46 48 49 47 46 47 48 48 47 47 49 51 53 56 60 61 62 62 61 58 57 55 53 53 54 54 55 56 57 59 61 63 66 70 70 70 71 71 70 68 69 72 73 73 74 78 83 83 80
41 41 40 40 41 42 42 42 43 43 43 45 47 48 50 50 49 48 47 48 49 49 48 49 51 53 56 61 64 63 60 58 58 58 57 55 54 55 55 55 56 58 60 62 64 66 69 72 72 71 70 69 67 66 68 74 79 80 79 78 77 72 64
42 42 42 43 44 45 45 46 47 47 47 47 49 52 52 50 49 49 49 50 50 50 50 51 52 53 57 62 64 62 58 56 57 57 55 54 54 55 56 57 58 60 63 65 67 70 72 73 72 70 67 66 66 68 69 72 76 79 77 70 63 56 51
43 44 44 44 44 44 44 45 46 47 48 48 49 52 52 51 52 52 52 52 52 51 51 52 52 53 57 61 60 58 57 57 56 55 54 53 54 55 57 58 59 62 67 69 70 72 73 73 73 71 66 65 69 70 69 70 71 69 63 56 51 50 50
46 46 46 45 44 44 44 45 45 47 49 51 51 51 52 53 55 55 54 54 54 53 53 53 52 53 56 57 55 55 57 58 56 54 53 53 55 56 58 59 61 65 69 72 73 72 71 72 74 72 67 67 70 69 67 67 63 57 52 49 49 51 54
48 47 46 46 45 45 45 46 48 49 51 52 52 52 55 57 58 57 56 57 57 56 54 52 51 52 53 52 50 52 55 55 52 51 52 53 55 56 57 59 64 68 70 70 70 70 68 70 73 70 65 65 67 65 61 60 55 51 50 51 53 57 59
48 48 49 49 48 47 47 49 50 50 51 53 55 57 58 59 58 57 57 57 56 53 50 48 47 50 52 51 50 50 51 50 50 52 53 54 55 55 54 56 62 66 65 62 62 63 66 69 70 68 65 64 63 59 55 55 54 54 56 58 61 62 62